Home > Weather > Bimbo > Past weeks

Flag for Central African Republic Weather for the Past 2 Weeks in Bimbo, Central African Republic

Now
64 °F

Fog.


Feels Like: 64 °F
Forecast: 59 / 100 °F
Wind: No wind

Location: Bangui Airport

Current Time: Feb 14, 2016 at 5:22:58 AM

Latest Report: Feb 14, 2016 at 4:00 AM


Visibility: 2 mi

Pressure: 29.89 "Hg

Humidity: 83%

Dew point: 59 °F

Location of BimboLocation

Historic Weather in Bimbo — Graph

°F

Bimbo Temperature Yesterday

Maximum temperature yesterday: 97 °F (at 1:00 PM)
Minimum temperature yesterday: 63 °F (at 6:00 AM)
Average temperature yesterday: 79 °F

High & Low Weather Summary for the Past Weeks

 TemperatureHumidityPressure
High102 °F (Feb 5, 2:00 PM)88% (Feb 4, 5:00 AM)30.01 "Hg (Feb 4, 5:00 AM)
Low59 °F (Jan 30, 6:00 AM)10% (Feb 11, 3:00 PM)29.71 "Hg (Feb 5, 3:00 PM)
Average80 °F49%29.85 "Hg
* Reported Jan 30 4:00 AM — Feb 14 4:00 AM, Bimbo, Weather by CustomWeather, © 2016

Note: Actual official high and low records may vary slightly from our data, if they occured in-between our weather recording intervals... More about our weather records

Advertising

Bimbo Weather History for the Previous 24 Hours

 ConditionsComfort  
Time TempWeatherWind HumidityBarometerVisibility
4:00 AM
Sun, Feb 14
64 °FFog.No wind83%29.89 "Hg2 mi
3:00 AM66 °FFog.1 mph73%29.86 "Hg2 mi
2:00 AM66 °FFog.No wind78%29.86 "Hg2 mi
1:00 AM68 °FHaze.No wind78%29.86 "Hg1 mi
12:00 AM70 °FHaze.No wind73%29.86 "Hg1 mi
11:00 PM
Sat, Feb 13
72 °FHaze.No wind69%29.86 "Hg1 mi
10:00 PM75 °FHaze.1 mph57%29.86 "Hg1 mi
9:00 PM73 °FHaze.2 mph65%29.83 "Hg1 mi
8:00 PM79 °FHaze.No wind48%29.80 "Hg1 mi
7:00 PM81 °FHaze.2 mph42%29.77 "Hg1 mi
6:00 PM86 °FHaze.No wind35%29.74 "Hg1 mi
5:00 PM95 °FHaze.No wind22%29.74 "Hg2 mi
4:00 PM97 °FHaze.5 mph18%29.71 "Hg2 mi
3:00 PM97 °FHaze.5 mph20%29.71 "Hg2 mi
2:00 PM97 °FHaze.6 mph19%29.74 "Hg1 mi
1:00 PM97 °FHaze.3 mph20%29.77 "Hg1 mi
12:00 PM95 °FHaze.2 mph25%29.80 "Hg1 mi
11:00 AM90 °FHaze.5 mph36%29.86 "Hg1 mi
10:00 AM84 °FHaze.2 mph45%29.89 "Hg1 mi
9:00 AM75 °FHaze.1 mph65%29.89 "Hg1 mi
8:00 AM68 °FFog.1 mph83%29.89 "Hg1 mi
7:00 AM64 °FFog.2 mph88%29.89 "Hg1 mi
6:00 AM63 °FFog.2 mph88%29.89 "Hg1 mi
5:00 AM64 °FFog.2 mph88%29.86 "Hg2 mi
Weather by CustomWeather, © 2016

See weather overviewHow to use our weather pages